Location: Anglesey
(53.1800°N, 4.2200°W)
Time: 08:52:03
(UTC+01:00)

ISS - Pass Details

Date: 14 October 2017
Orbit: 400 x 408 km, 51.6° (Epoch: 24 October)

Event Time Altitude Azimuth Distance (km) Brightness Sun altitude
Rises 19:47:13 0° 276° (W) 2,327 2.1 -13.4°
Reaches altitude 10° 19:50:18 10° 244° (WSW) 1,464 0.0 -13.8°
Maximum altitude 19:51:40 12° 219° (SW) 1,339 -0.7 -14.1°
Drops below altitude 10° 19:53:03 10° 194° (SSW) 1,462 -0.9 -14.3°
Enters shadow 19:55:34 - 166° (SSE) 2,130 -0.4 -14.6°
